Temperature
10 10 10 10 10 10 10 10 10 10 10 10 10 10 10 10 10 10 10 10 10 10 10 10 10 10 10 10 10 10 10 10 10 9 9 9 9 9 9 9 9 9 9
10 10 10 10 10 10 10 10 10 10 10 10 10 10 10 10 10 10 10 10 10 10 10 9 9 9 9 9 9 9 9 9 9 9 9 9 9 9 9 9 9 9 9
10 10 10 9 9 9 9 9 9 9 9 9 9 9 9 9 9 9 9 9 9 9 9 9 9 9 9 9 9 9 9 9 8 8 8 8 8 8 8 8 8 8 8
9 9 9 9 9 9 9 9 9 9 9 9 9 9 9 9 9 9 9 9 9 9 9 9 8 8 8 8 8 8 8 8 8 8 8 8 8 8 8 8 8 8 8
9 9 8 8 8 8 8 8 8 8 8 8 8 8 8 8 8 8 8 8 8 8 8 8 8 8 8 8 8 7 7 7 7 7 7 7 7 7 7 7 7 7 7
8 8 8 8 8 8 8 8 8 8 8 8 8 8 8 8 8 8 8 8 8 8 8 8 8 8 8 7 7 7 7 7 7 7 7 7 7 7 7 7 7 7 6
8 7 7 7 7 7 7 7 7 7 7 7 7 7 7 7 7 7 7 7 7 7 7 7 7 7 7 7 7 7 6 6 6 6 6 6 6 6 6 6 6 6 6
7 7 7 7 7 7 7 7 7 6 6 6 6 6 6 6 6 6 7 7 6 6 6 6 6 7 6 6 6 6 6 6 5 5 5 5 5 5 5 5 6 6 6
7 6 6 6 6 6 6 6 6 6 6 6 5 5 5 5 5 6 6 6 6 6 6 6 6 6 6 6 6 6 6 5 5 5 5 5 5 5 5 5 5 5 5
6 6 6 6 6 6 6 6 6 6 5 5 5 5 5 5 4 5 5 5 5 5 5 5 5 5 5 5 5 5 5 5 5 5 4 4 4 4 4 4 4 4 4
6 5 5 5 5 5 5 5 5 5 5 5 5 4 4 4 4 4 4 5 5 5 5 5 5 5 4 4 5 5 5 4 4 4 4 4 4 4 4 4 4 4 4
5 5 5 5 5 5 5 5 5 5 5 5 4 4 4 4 4 3 3 4 4 4 4 4 4 4 4 4 4 4 4 4 4 4 4 4 4 4 4 4 4 3 3
5 5 5 5 4 4 4 4 4 4 4 4 4 4 4 3 3 3 3 3 3 3 4 4 4 4 4 3 3 3 3 3 3 3 3 3 4 3 3 3 3 3 3
5 5 4 4 4 4 4 4 4 4 4 4 4 3 3 3 3 3 3 2 2 2 2 3 3 3 3 3 3 3 3 3 3 3 3 3 3 3 3 3 3 3 2
4 4 4 4 4 4 4 4 4 3 3 3 3 3 3 3 2 2 2 2 2 1 1 2 2 2 2 2 2 2 2 2 2 3 3 3 3 2 2 2 2 2 2
4 4 4 4 4 3 3 3 3 3 3 3 3 3 2 2 2 2 2 2 2 1 1 1 2 2 2 2 2 1 2 2 2 2 2 2 2 2 2 2 2 2 2
3 3 3 3 3 3 3 3 3 3 3 2 2 2 2 2 2 2 2 1 1 1 1 1 1 1 1 1 1 1 1 1 1 1 1 2 2 2 1 1 1 1 1
3 3 3 3 3 3 2 2 2 2 2 2 2 2 2 1 1 1 1 1 1 1 1 1 1 1 1 1 1 1 1 1 1 1 1 1 1 1 1 1 1 1 1
3 3 3 2 2 2 2 2 2 2 1 1 1 1 1 1 1 1 1 1 1 1 0 0 0 0 0 0 0 0 0 0 0 0 0 1 1 1 1 0 0 0 -0
2 2 2 2 2 2 1 1 1 1 1 1 1 1 1 1 0 0 0 0 0 -0 -0 -0 -0 -0 -0 -0 -0 -0 0 -0 -0 -0 -0 0 0 0 0 -0 -0 -1 -1
2 2 2 1 1 1 1 1 1 1 0 0 0 0 0 0 0 -0 -0 -0 -0 -0 -0 -1 -1 -1 -1 -1 -1 -1 -1 -1 -1 -1 -0 -0 -0 -0 -0 -1 -1 -1 -1
1 1 1 1 1 1 1 0 0 0 0 -0 -0 -0 -0 -0 -0 -0 -0 -1 -1 -1 -1 -1 -1 -1 -1 -1 -1 -1 -1 -2 -1 -1 -1 -1 -1 -1 -1 -1 -1 -1 -1
1 1 1 1 0 0 0 0 -0 -0 -0 -0 -1 -1 -1 -1 -1 -1 -1 -1 -1 -1 -1 -2 -2 -2 -2 -1 -2 -2 -2 -2 -2 -2 -2 -1 -1 -1 -1 -2 -2 -2 -2
0 0 0 0 -0 -0 -0 -1 -1 -1 -1 -1 -1 -1 -1 -1 -1 -1 -1 -1 -1 -2 -2 -2 -2 -2 -2 -2 -2 -2 -2 -2 -2 -2 -2 -2 -2 -2 -2 -2 -2 -2 -2
-0 -0 -0 -0 -1 -1 -1 -1 -1 -1 -1 -1 -1 -1 -1 -1 -1 -2 -2 -2 -2 -2 -2 -2 -2 -2 -2 -2 -2 -2 -2 -3 -3 -3 -3 -3 -3 -2 -2 -2 -2 -3 -3
-1 -1 -1 -1 -1 -1 -1 -2 -2 -2 -2 -2 -2 -2 -2 -2 -2 -2 -2 -2 -2 -2 -2 -2 -2 -3 -3 -3 -3 -3 -3 -3 -3 -3 -3 -3 -3 -3 -3 -3 -3 -3 -3
Wind_Speed
3 3 3 3 4 4 4 4 4 4 4 4 4 4 4 4 4 4 4 4 3 3 2 2 3 3 2 2 2 3 3 3 4 4 4 4 5 5 6 6 6 7 7
3 3 2 2 3 3 4 4 3 2 2 3 3 3 3 3 3 3 4 4 4 4 3 2 3 4 3 3 3 3 3 3 4 4 5 5 5 6 7 7 7 8 8
3 3 2 1 2 3 3 4 3 3 2 2 2 2 2 2 2 2 3 3 4 4 4 4 4 4 4 4 4 3 3 4 4 5 5 6 6 7 7 8 8 8 9
3 2 2 1 1 3 3 2 2 2 1 1 1 1 2 1 1 1 2 2 3 4 4 5 5 4 5 5 5 4 4 4 5 5 6 6 6 7 8 8 9 9 9
3 3 1 1 2 2 2 1 1 2 1 1 1 1 1 1 1 1 1 2 2 3 4 4 5 5 5 6 6 5 5 5 5 6 7 7 7 7 8 8 9 10 10
2 2 2 1 2 2 1 1 1 1 1 1 1 1 2 1 1 1 1 1 2 3 3 4 5 6 6 6 7 7 6 5 6 6 7 7 7 8 9 9 9 10 10
2 2 2 2 1 2 2 2 1 1 1 1 1 2 2 2 1 1 1 1 2 2 3 4 4 5 5 6 7 7 8 7 7 7 7 8 8 9 9 10 10 9 10
2 2 2 2 1 2 1 2 2 1 1 1 1 1 1 3 2 1 1 1 1 2 3 3 3 4 4 5 6 7 7 8 8 8 8 9 9 9 9 9 9 9 10
2 2 2 2 2 2 2 3 3 3 2 1 1 2 1 2 2 2 1 1 0 1 2 3 3 3 4 4 5 6 7 8 8 8 8 9 9 9 9 9 9 10 11
2 2 3 3 2 2 3 3 3 3 3 2 1 0 1 1 1 2 2 2 1 1 2 2 3 3 3 4 4 6 7 8 8 8 9 9 9 9 9 10 10 11 11
1 2 2 2 2 2 3 3 3 3 3 4 3 1 1 0 1 2 3 3 3 2 2 2 2 2 2 3 4 5 7 7 8 9 9 9 10 10 11 10 11 12 12
1 1 2 2 2 2 3 3 3 4 4 3 3 3 3 2 2 2 3 3 3 3 2 2 2 2 2 3 3 5 6 7 8 9 10 10 10 10 11 11 11 12 12
2 3 2 2 3 3 3 3 3 4 4 4 4 3 3 3 2 2 3 3 3 3 2 1 2 2 2 2 3 5 6 8 8 9 11 11 10 10 11 11 11 11 11
4 4 3 3 3 3 3 3 3 3 3 4 4 4 3 3 3 3 3 2 3 3 2 3 1 2 2 2 4 5 5 8 9 10 11 12 11 10 11 11 11 11 12
3 3 3 3 3 3 3 3 3 3 3 3 4 4 3 3 2 3 3 3 3 4 4 3 2 2 2 3 4 4 5 8 10 11 11 12 11 11 10 10 10 11 11
3 3 3 3 3 3 3 3 2 3 3 3 3 3 4 3 3 3 3 4 4 4 4 3 3 3 3 3 6 5 6 9 10 11 11 11 11 11 10 10 10 10 10
3 3 4 3 3 3 3 3 3 3 3 3 2 3 4 3 3 3 3 3 4 4 6 5 3 2 2 3 4 5 6 6 8 10 11 10 10 10 10 10 9 9 10
3 3 3 3 3 3 3 3 3 3 3 3 3 3 4 3 3 3 3 3 4 4 5 6 4 3 3 3 3 4 5 6 6 9 10 10 10 10 10 9 9 9 9
3 3 3 3 3 3 3 3 4 4 4 4 4 4 4 3 3 3 3 3 3 3 4 4 5 3 3 2 2 3 4 4 6 7 8 9 10 9 9 9 9 8 9
3 2 2 2 2 2 3 3 3 3 3 3 3 4 4 4 5 4 4 4 3 3 3 4 4 4 3 2 2 3 3 3 4 5 7 8 8 9 8 9 8 8 8
2 2 2 1 1 1 2 3 3 3 3 2 2 3 3 4 6 5 4 3 3 3 3 3 4 4 3 2 3 2 3 4 4 3 4 5 5 5 6 8 8 8 8
2 1 1 1 1 1 2 2 2 2 2 2 2 3 3 3 4 5 6 6 5 5 5 4 4 5 4 4 3 3 3 3 4 2 2 4 3 4 5 6 8 8 9
2 1 1 1 1 2 2 2 2 1 2 2 2 2 2 2 3 2 4 5 5 6 7 6 6 6 5 4 3 4 3 4 4 3 3 5 3 4 6 7 8 8 9
1 1 1 1 1 2 2 2 2 1 2 2 3 3 3 3 3 3 3 3 3 3 4 4 5 5 5 4 4 4 4 4 3 3 2 4 4 4 5 6 7 7 8
1 1 1 1 1 2 3 2 2 1 1 2 2 2 2 3 5 5 3 3 3 3 4 5 5 5 6 6 4 2 2 3 4 3 1 2 3 4 4 4 5 7 7
1 0 1 1 2 2 3 3 2 1 1 2 2 2 4 4 6 5 3 3 4 3 2 2 3 4 3 4 4 2 3 3 3 3 2 1 2 2 3 3 3 5 6
Wind_Direction
89 81 76 77 84 88 85 76 71 69 69 67 67 67 58 52 44 34 23 24 21 18 18 12 359 353 353 342 344 356 2 356 355 353 346 342 341 339 335 333 332 331 327
103 102 90 80 87 101 106 98 86 81 67 68 59 57 52 46 40 30 22 16 14 8 360 350 345 350 344 335 330 326 338 341 342 342 342 336 333 331 328 325 322 319 320
114 115 118 103 105 115 110 103 89 79 70 61 53 46 51 47 39 21 14 14 10 4 358 352 349 343 339 331 330 325 327 326 332 333 332 333 329 323 321 320 323 320 318
126 116 121 126 114 113 107 118 118 97 62 44 22 10 23 28 27 15 14 18 20 12 2 354 348 342 338 337 333 331 332 331 332 330 328 329 330 328 323 320 322 322 322
137 126 134 128 118 112 116 143 127 130 114 49 10 359 358 350 340 1 16 22 22 20 12 356 356 355 348 340 332 324 322 325 329 329 325 324 324 323 323 321 319 320 320
141 129 125 117 112 130 145 144 142 116 133 136 40 8 338 318 328 337 334 20 23 24 26 24 20 10 0 350 339 335 325 320 325 326 326 326 324 322 318 317 318 318 317
150 132 129 127 137 169 184 169 152 135 112 103 77 5 342 336 327 324 354 45 32 24 31 26 19 16 2 349 344 333 328 325 325 322 321 322 318 315 317 318 315 317 320
166 162 152 159 164 164 164 172 150 156 152 117 119 108 337 332 324 322 354 80 20 25 13 0 3 6 358 353 339 335 327 324 319 320 319 320 314 311 315 314 315 318 321
183 177 176 167 173 171 191 196 182 169 182 180 136 147 167 246 305 313 299 308 319 347 332 334 339 342 341 340 334 331 327 322 318 319 317 322 320 313 309 314 315 316 316
194 192 180 174 176 181 197 203 185 185 175 189 202 160 183 175 211 306 313 311 310 294 295 316 320 322 327 334 337 333 333 335 328 320 319 321 319 318 316 315 314 315 315
205 198 185 178 187 195 201 204 196 190 189 188 186 185 175 199 201 221 278 304 316 294 286 288 284 290 305 325 336 335 333 336 336 327 318 316 316 316 317 317 316 311 311
222 220 197 191 202 206 203 203 197 198 198 197 197 191 186 188 205 215 252 276 289 297 305 292 272 262 279 313 322 332 333 334 332 329 321 316 315 314 314 314 314 312 310
224 228 217 211 214 216 208 201 194 211 207 202 206 214 208 209 207 218 244 271 283 295 298 288 271 262 279 304 312 324 327 326 324 322 321 316 312 309 309 310 312 312 315
222 216 213 216 220 214 206 201 199 213 210 210 215 212 209 215 213 212 222 244 280 288 276 264 294 264 274 289 296 315 318 316 316 316 314 315 309 304 303 303 306 307 309
220 210 207 207 215 208 200 188 205 214 207 209 213 212 215 221 220 223 224 223 228 264 274 257 266 278 295 287 291 300 303 306 310 310 310 310 308 302 300 300 301 303 307
209 200 206 205 207 207 195 182 202 211 204 220 215 215 226 225 227 227 224 231 229 235 261 261 250 261 288 293 296 297 297 304 306 307 308 307 307 302 299 299 299 302 305
197 200 208 203 204 208 202 193 204 204 205 220 228 227 241 233 228 233 231 234 236 230 253 272 261 267 266 281 305 301 299 298 296 302 306 308 309 309 302 299 298 300 302
202 202 198 197 203 206 205 202 206 210 213 223 229 227 245 246 242 241 235 242 242 235 238 263 275 268 260 273 288 297 307 302 296 301 306 309 312 311 304 298 297 301 304
197 193 190 200 208 206 206 206 209 216 219 227 230 230 240 236 248 252 247 249 250 249 236 248 269 267 265 284 289 293 300 303 303 303 307 310 314 316 313 307 299 302 306
180 183 187 199 208 209 210 210 215 220 221 232 239 238 240 234 238 246 252 248 245 242 238 241 261 268 268 280 273 286 299 299 297 307 309 307 308 316 318 316 310 307 307
173 171 171 186 200 212 209 202 212 210 212 230 248 253 252 252 253 254 252 244 235 240 242 249 259 265 263 267 267 265 279 297 292 296 304 307 309 312 314 311 311 310 313
141 141 162 178 227 250 246 245 228 203 209 218 248 264 265 268 278 283 278 273 261 244 241 247 254 255 256 251 255 263 270 295 301 305 313 301 305 296 304 306 307 311 313
125 130 154 157 249 261 274 270 266 222 211 223 236 255 277 279 287 270 287 295 289 277 255 244 249 253 251 242 242 257 258 265 270 282 301 295 298 292 301 303 306 310 316
127 146 195 200 229 275 294 289 287 245 219 233 236 237 249 262 261 257 259 277 271 270 266 252 244 253 253 245 232 239 246 265 270 273 264 284 298 294 303 305 303 311 318
141 176 197 207 230 275 287 289 301 210 232 249 251 247 253 260 271 274 261 265 273 271 276 264 260 264 270 270 254 245 247 270 286 286 254 265 293 301 300 295 303 313 321
172 180 255 239 237 258 279 295 300 218 248 269 272 265 269 274 279 281 252 245 262 269 263 279 286 291 293 283 275 247 232 249 268 280 265 254 288 317 316 295 300 310 315
Height
1522 1522 1523 1524 1525 1525 1526 1527 1527 1528 1529 1529 1530 1530 1531 1531 1532 1533 1533 1534 1535 1535 1535 1535 1535 1535 1535 1535 1535 1535 1534 1534 1534 1533 1533 1533 1533 1532 1532 1531 1531 1530 1529
1520 1521 1521 1522 1523 1524 1525 1525 1526 1526 1527 1527 1528 1528 1529 1530 1530 1531 1531 1532 1532 1533 1533 1533 1533 1533 1533 1533 1533 1532 1532 1532 1531 1531 1531 1530 1530 1530 1529 1528 1528 1527 1526
1518 1519 1520 1521 1521 1522 1523 1523 1524 1525 1525 1525 1526 1527 1527 1528 1528 1529 1529 1530 1530 1530 1530 1531 1531 1531 1531 1531 1530 1530 1529 1529 1529 1528 1528 1527 1527 1527 1526 1526 1525 1524 1523
1516 1517 1518 1518 1519 1520 1520 1521 1522 1522 1523 1523 1524 1524 1525 1526 1526 1526 1527 1527 1527 1527 1528 1528 1528 1528 1528 1528 1528 1527 1527 1526 1526 1526 1525 1524 1524 1523 1523 1522 1522 1521 1520
1514 1514 1516 1516 1516 1517 1518 1519 1519 1520 1520 1521 1521 1522 1522 1523 1523 1524 1524 1524 1525 1525 1525 1525 1525 1525 1525 1525 1525 1525 1524 1524 1523 1522 1522 1521 1521 1520 1520 1519 1518 1518 1517
1511 1512 1513 1513 1514 1515 1515 1516 1517 1517 1518 1518 1519 1519 1520 1520 1521 1521 1521 1522 1522 1522 1522 1522 1522 1522 1522 1522 1522 1521 1521 1521 1520 1519 1519 1518 1517 1517 1516 1515 1514 1514 1513
1509 1509 1510 1510 1511 1512 1513 1513 1514 1514 1515 1515 1516 1516 1517 1517 1518 1518 1518 1518 1519 1519 1519 1519 1519 1519 1519 1518 1518 1518 1518 1517 1516 1516 1515 1514 1514 1513 1512 1511 1511 1510 1509
1505 1506 1507 1507 1508 1509 1509 1510 1511 1511 1512 1512 1513 1513 1513 1514 1514 1515 1515 1515 1516 1516 1516 1516 1516 1515 1515 1515 1515 1514 1514 1514 1513 1512 1511 1510 1509 1509 1508 1507 1507 1506 1505
1502 1503 1503 1504 1505 1506 1506 1507 1508 1508 1509 1510 1511 1512 1512 1511 1511 1511 1511 1512 1513 1513 1513 1513 1512 1512 1512 1512 1511 1511 1510 1510 1509 1508 1507 1506 1505 1505 1504 1503 1502 1501 1500
1499 1499 1500 1501 1502 1503 1503 1504 1504 1505 1506 1506 1508 1508 1510 1509 1510 1508 1508 1509 1509 1510 1510 1510 1509 1509 1509 1508 1508 1507 1506 1505 1505 1504 1503 1502 1501 1500 1499 1499 1498 1497 1496
1495 1496 1497 1497 1498 1499 1500 1500 1500 1501 1502 1502 1503 1504 1505 1506 1506 1506 1504 1504 1505 1506 1506 1506 1506 1505 1505 1505 1504 1503 1502 1501 1501 1500 1499 1498 1497 1496 1495 1494 1493 1492 1491
1492 1492 1493 1494 1495 1495 1496 1496 1497 1497 1498 1499 1500 1500 1501 1502 1502 1503 1502 1500 1500 1501 1502 1502 1502 1502 1501 1501 1500 1499 1498 1497 1496 1496 1495 1493 1492 1491 1490 1489 1488 1487 1486
1488 1489 1490 1490 1491 1492 1492 1493 1493 1494 1494 1495 1496 1496 1497 1498 1499 1500 1499 1498 1497 1496 1497 1497 1498 1497 1497 1497 1496 1495 1494 1493 1492 1491 1490 1488 1487 1486 1485 1484 1483 1482 1480
1484 1485 1486 1487 1487 1488 1488 1489 1489 1490 1490 1491 1492 1492 1493 1493 1495 1495 1496 1496 1494 1493 1492 1492 1493 1493 1493 1493 1492 1491 1490 1488 1487 1486 1485 1484 1483 1482 1481 1480 1478 1477 1476
1481 1482 1483 1483 1484 1484 1485 1485 1486 1486 1487 1487 1488 1488 1488 1489 1490 1491 1492 1493 1493 1490 1488 1488 1489 1489 1489 1488 1487 1486 1485 1484 1483 1482 1481 1479 1478 1477 1476 1475 1473 1472 1471
1477 1478 1479 1479 1480 1481 1481 1481 1482 1482 1483 1483 1484 1484 1485 1485 1486 1487 1487 1488 1488 1488 1485 1484 1484 1485 1484 1484 1483 1482 1481 1479 1478 1477 1476 1475 1473 1472 1471 1470 1469 1467 1466
1473 1474 1475 1476 1476 1477 1477 1477 1478 1479 1479 1479 1480 1480 1481 1481 1481 1482 1482 1483 1483 1483 1481 1480 1480 1480 1480 1479 1479 1478 1476 1475 1474 1473 1471 1470 1469 1467 1466 1465 1464 1462 1461
1469 1470 1471 1471 1472 1473 1473 1474 1474 1475 1475 1475 1476 1477 1477 1477 1477 1478 1478 1478 1478 1478 1477 1475 1475 1476 1475 1475 1474 1473 1472 1470 1469 1468 1467 1466 1464 1463 1462 1460 1459 1457 1456
1465 1466 1467 1467 1468 1469 1469 1470 1470 1471 1471 1472 1473 1473 1474 1474 1474 1474 1474 1473 1473 1473 1473 1472 1471 1471 1471 1471 1470 1469 1468 1466 1465 1464 1463 1461 1460 1458 1457 1456 1454 1453 1451
1461 1462 1463 1464 1465 1465 1465 1466 1466 1467 1468 1469 1469 1470 1470 1470 1470 1470 1470 1469 1469 1469 1469 1468 1467 1467 1467 1466 1466 1464 1463 1462 1461 1460 1458 1457 1456 1454 1453 1451 1450 1448 1447
1458 1459 1460 1461 1461 1462 1462 1463 1463 1464 1464 1465 1466 1466 1466 1466 1466 1466 1466 1465 1465 1465 1464 1464 1463 1463 1462 1462 1461 1461 1459 1458 1457 1456 1454 1453 1452 1450 1448 1447 1445 1443 1442
1455 1456 1457 1458 1458 1459 1459 1460 1460 1461 1461 1461 1461 1462 1462 1462 1462 1462 1462 1462 1461 1461 1460 1460 1459 1459 1458 1458 1458 1457 1456 1454 1453 1453 1451 1449 1448 1446 1444 1443 1441 1439 1438
1452 1453 1454 1455 1455 1456 1457 1457 1457 1457 1458 1458 1458 1458 1458 1458 1458 1458 1458 1457 1457 1457 1457 1457 1456 1455 1455 1454 1454 1453 1452 1451 1449 1448 1447 1444 1444 1442 1441 1439 1438 1436 1434
1450 1450 1451 1452 1453 1453 1454 1454 1454 1454 1454 1455 1455 1455 1454 1454 1454 1454 1454 1453 1453 1453 1453 1452 1452 1451 1451 1451 1450 1449 1448 1447 1446 1445 1444 1441 1439 1438 1437 1435 1434 1433 1431
1447 1448 1449 1449 1450 1450 1451 1451 1451 1451 1451 1451 1452 1451 1451 1451 1450 1450 1450 1449 1449 1448 1449 1448 1448 1447 1447 1447 1446 1445 1444 1443 1442 1441 1441 1439 1436 1435 1433 1432 1431 1429 1427
1445 1445 1446 1447 1447 1447 1448 1448 1448 1448 1448 1448 1448 1448 1448 1447 1447 1447 1446 1445 1444 1444 1444 1444 1444 1444 1443 1443 1442 1441 1441 1440 1439 1438 1437 1436 1434 1433 1430 1429 1428 1426 1424